| time (UTC) | temp C | wind direction | speed KPH | gust KPH | rain 1hr cm | rain 24hr cm | rain mn cm | humidity % | barometer mb |
| 20260505010008 | 23 | 190 | 1.6 | 3.2 | 0.00 | 0.00 | 0.00 | 52 | 1009.8 |
| 20260505005504 | 23 | 194 | 0.0 | 4.8 | 0.00 | 0.00 | 0.00 | 51 | 1009.8 |
| 20260505005004 | 23 | 207 | 0.0 | 8.0 | 0.00 | 0.00 | 0.00 | 51 | 1009.8 |
| 20260505004523 | 23 | 242 | 1.6 | 8.0 | 0.00 | 0.00 | 0.00 | 51 | 1009.8 |
| 20260505004007 | 23 | 169 | 0.0 | 4.8 | 0.00 | 0.00 | 0.00 | 51 | 1009.8 |
| 20260505003510 | 23 | 116 | 1.6 | 4.8 | 0.00 | 0.00 | 0.00 | 49 | 1009.8 |
| 20260505003017 | 23 | 291 | 1.6 | 4.8 | 0.00 | 0.00 | 0.00 | 50 | 1009.8 |
| 20260505002508 | 23 | 324 | 0.0 | 4.8 | 0.00 | 0.00 | 0.00 | 52 | 1009.8 |
| 20260505002008 | 23 | 114 | 0.0 | 8.0 | 0.00 | 0.00 | 0.00 | 51 | 1009.8 |
| 20260505001523 | 23 | 228 | 1.6 | 8.0 | 0.00 | 0.00 | 0.00 | 51 | 1009.8 |
| 20260505001013 | 23 | 306 | 1.6 | 8.0 | 0.00 | 0.00 | 0.00 | 49 | 1009.8 |
| 20260505000508 | 23 | 192 | 3.2 | 8.0 | 0.00 | 0.00 | 0.00 | 50 | 1009.8 |
| 20260505000025 | 23 | 5 | 1.6 | 6.4 | 0.00 | 0.00 | 0.00 | 51 | 1009.8 |
| 20260504235508 | 23 | 183 | 3.2 | 6.4 | 0.00 | 0.00 | 0.00 | 50 | 1009.8 |
| 20260504235008 | 23 | 311 | 1.6 | 4.8 | 0.00 | 0.00 | 0.00 | 51 | 1009.8 |
| 20260504234517 | 23 | 213 | 1.6 | 4.8 | 0.00 | 0.00 | 0.00 | 51 | 1009.8 |
| 20260504234005 | 23 | 198 | 0.0 | 6.4 | 0.00 | 0.00 | 0.00 | 51 | 1009.8 |
| 20260504233509 | 23 | 197 | 1.6 | 6.4 | 0.00 | 0.00 | 0.00 | 51 | 1009.8 |
| 20260504233016 | 23 | 183 | 1.6 | 8.0 | 0.00 | 0.00 | 0.00 | 50 | 1009.7 |
| 20260504232505 | 24 | 222 | 3.2 | 8.0 | 0.00 | 0.00 | 0.00 | 49 | 1009.8 |
| 20260504232008 | 24 | 201 | 3.2 | 9.7 | 0.00 | 0.00 | 0.00 | 49 | 1009.7 |
| 20260504231536 | 23 | 200 | 3.2 | 9.7 | 0.00 | 0.00 | 0.00 | 49 | 1009.8 |
| 20260504231007 | 25 | 189 | 3.2 | 8.0 | 0.00 | 0.00 | 0.00 | 48 | 1009.8 |
| 20260504230507 | 24 | 148 | 0.0 | 4.8 | 0.00 | 0.00 | 0.00 | 48 | 1009.8 |
| 20260504230025 | 24 | 337 | 1.6 | 9.7 | 0.00 | 0.00 | 0.00 | 49 | 1009.9 |
| 20260504225513 | 24 | 186 | 3.2 | 9.7 | 0.00 | 0.00 | 0.00 | 46 | 1010.0 |
| 20260504225009 | 24 | 193 | 1.6 | 8.0 | 0.00 | 0.00 | 0.00 | 47 | 1010.1 |
| 20260504224528 | 23 | 194 | 1.6 | 11.3 | 0.00 | 0.00 | 0.00 | 46 | 1010.3 |
| 20260504224007 | 24 | 197 | 4.8 | 11.3 | 0.00 | 0.00 | 0.00 | 44 | 1010.4 |
| 20260504223512 | 24 | 178 | 1.6 | 8.0 | 0.00 | 0.00 | 0.00 | 44 | 1010.6 |
| 20260504223014 | 23 | 140 | 3.2 | 8.0 | 0.00 | 0.00 | 0.00 | 46 | 1010.5 |
| 20260504222507 | 23 | 192 | 1.6 | 8.0 | 0.00 | 0.00 | 0.00 | 44 | 1010.6 |
| 20260504222006 | 24 | 217 | 3.2 | 11.3 | 0.00 | 0.00 | 0.00 | 47 | 1010.6 |
| 20260504221517 | 24 | 175 | 3.2 | 11.3 | 0.00 | 0.00 | 0.00 | 46 | 1010.7 |
| 20260504221008 | 23 | 131 | 3.2 | 9.7 | 0.00 | 0.00 | 0.00 | 45 | 1010.7 |
| 20260504220508 | 23 | 5 | 3.2 | 9.7 | 0.00 | 0.00 | 0.00 | 47 | 1010.8 |
| 20260504220024 | 23 | 182 | 3.2 | 9.7 | 0.00 | 0.00 | 0.00 | 45 | 1010.8 |
| 20260504215507 | 24 | 168 | 1.6 | 9.7 | 0.00 | 0.00 | 0.00 | 48 | 1010.8 |
| 20260504215012 | 24 | 169 | 3.2 | 8.0 | 0.00 | 0.00 | 0.00 | 45 | 1010.9 |
| 20260504214534 | 23 | 233 | 1.6 | 11.3 | 0.00 | 0.00 | 0.00 | 46 | 1010.9 |
| 20260504214012 | 23 | 319 | 4.8 | 11.3 | 0.00 | 0.00 | 0.00 | 44 | 1010.9 |
| 20260504213514 | 23 | 19 | 1.6 | 8.0 | 0.00 | 0.00 | 0.00 | 46 | 1010.8 |
| 20260504213030 | 24 | 114 | 1.6 | 6.4 | 0.00 | 0.00 | 0.00 | 47 | 1010.9 |
| 20260504212511 | 23 | 234 | 1.6 | 6.4 | 0.00 | 0.00 | 0.00 | 50 | 1010.9 |
| 20260504212013 | 23 | 193 | 3.2 | 6.4 | 0.00 | 0.00 | 0.00 | 48 | 1011.0 |
| 20260504211514 | 23 | 125 | 3.2 | 8.0 | 0.00 | 0.00 | 0.00 | 49 | 1011.1 |
| 20260504211007 | 23 | 192 | 3.2 | 8.0 | 0.00 | 0.00 | 0.00 | 51 | 1011.2 |
| 20260504210507 | 23 | 186 | 3.2 | 8.0 | 0.00 | 0.00 | 0.00 | 51 | 1011.2 |
| 20260504210007 | 23 | 109 | 1.6 | 4.8 | 0.00 | 0.00 | 0.00 | 52 | 1011.2 |
| 20260504205504 | 23 | 202 | 1.6 | 8.0 | 0.00 | 0.00 | 0.00 | 51 | 1011.2 |
| 20260504205003 | 22 | 59 | 1.6 | 11.3 | 0.00 | 0.00 | 0.00 | 53 | 1011.2 |
| 20260504204505 | 22 | 130 | 3.2 | 9.7 | 0.00 | 0.00 | 0.00 | 51 | 1011.3 |
| 20260504204003 | 21 | 212 | 3.2 | 9.7 | 0.00 | 0.00 | 0.00 | 52 | 1011.3 |
| 20260504203503 | 22 | 181 | 1.6 | 8.0 | 0.00 | 0.00 | 0.00 | 52 | 1011.3 |
| 20260504203012 | 22 | 194 | 0.0 | 8.0 | 0.00 | 0.00 | 0.00 | 53 | 1011.3 |
| 20260504202503 | 22 | 261 | 1.6 | 4.8 | 0.00 | 0.00 | 0.00 | 53 | 1011.2 |
| 20260504202007 | 22 | 207 | 1.6 | 8.0 | 0.00 | 0.00 | 0.00 | 54 | 1011.2 |
| 20260504201503 | 21 | 205 | 1.6 | 9.7 | 0.00 | 0.00 | 0.00 | 54 | 1011.1 |
| 20260504201007 | 21 | 109 | 1.6 | 11.3 | 0.00 | 0.00 | 0.00 | 56 | 1011.2 |
| 20260504200503 | 21 | 205 | 4.8 | 11.3 | 0.00 | 0.00 | 0.00 | 54 | 1011.3 |
| 20260504200008 | 21 | 194 | 3.2 | 12.9 | 0.00 | 0.00 | 0.00 | 57 | 1011.3 |
| 20260504195506 | 21 | 217 | 6.4 | 12.9 | 0.00 | 0.00 | 0.00 | 54 | 1011.4 |
| 20260504195002 | 21 | 194 | 3.2 | 11.3 | 0.00 | 0.00 | 0.00 | 54 | 1011.4 |
| 20260504194508 | 21 | 214 | 3.2 | 9.7 | 0.00 | 0.00 | 0.00 | 56 | 1011.4 |
| 20260504194004 | 21 | 254 | 3.2 | 9.7 | 0.00 | 0.00 | 0.00 | 56 | 1011.4 |
| 20260504193504 | 20 | 223 | 3.2 | 11.3 | 0.00 | 0.00 | 0.00 | 55 | 1011.4 |
| 20260504193017 | 20 | 239 | 4.8 | 12.9 | 0.00 | 0.00 | 0.00 | 54 | 1011.4 |
| 20260504192503 | 21 | 168 | 3.2 | 12.9 | 0.00 | 0.00 | 0.00 | 56 | 1011.4 |
| 20260504192012 | 21 | 216 | 3.2 | 11.3 | 0.00 | 0.00 | 0.00 | 53 | 1011.6 |
| 20260504191511 | 21 | 325 | 3.2 | 8.0 | 0.00 | 0.00 | 0.00 | 54 | 1011.6 |
| 20260504191006 | 21 | 178 | 3.2 | 9.7 | 0.00 | 0.00 | 0.00 | 56 | 1011.6 |
| 20260504190507 | 20 | 221 | 4.8 | 14.5 | 0.00 | 0.00 | 0.00 | 54 | 1011.5 |
| 20260504190003 | 20 | 278 | 1.6 | 14.5 | 0.00 | 0.00 | 0.00 | 56 | 1011.6 |
| 20260504185500 | 20 | 215 | 3.2 | 14.5 | 0.00 | 0.00 | 0.00 | 58 | 1011.6 |
| 20260504185002 | 20 | 228 | 3.2 | 8.0 | 0.00 | 0.00 | 0.00 | 57 | 1011.7 |
| 20260504184505 | 20 | 178 | 1.6 | 8.0 | 0.00 | 0.00 | 0.00 | 60 | 1011.7 |
| 20260504184004 | 20 | 244 | 3.2 | 9.7 | 0.00 | 0.00 | 0.00 | 59 | 1011.8 |
| 20260504183502 | 20 | 194 | 1.6 | 9.7 | 0.00 | 0.00 | 0.00 | 61 | 1011.7 |
| 20260504183005 | 19 | 208 | 1.6 | 11.3 | 0.00 | 0.00 | 0.00 | 59 | 1011.7 |
| 20260504182504 | 19 | 165 | 4.8 | 11.3 | 0.00 | 0.00 | 0.00 | 60 | 1011.8 |
| 20260504182008 | 19 | 140 | 3.2 | 8.0 | 0.00 | 0.00 | 0.00 | 59 | 1011.8 |
| 20260504181510 | 20 | 223 | 1.6 | 8.0 | 0.00 | 0.00 | 0.00 | 60 | 1011.8 |
| 20260504181004 | 19 | 194 | 3.2 | 9.7 | 0.00 | 0.00 | 0.00 | 61 | 1011.8 |
| 20260504180509 | 19 | 130 | 4.8 | 9.7 | 0.00 | 0.00 | 0.00 | 58 | 1011.8 |
| 20260504180014 | 18 | 187 | 1.6 | 6.4 | 0.00 | 0.00 | 0.00 | 60 | 1011.9 |
| 20260504175507 | 19 | 256 | 1.6 | 12.9 | 0.00 | 0.00 | 0.00 | 59 | 1011.9 |
| 20260504175007 | 18 | 223 | 1.6 | 12.9 | 0.00 | 0.00 | 0.00 | 63 | 1011.8 |
| 20260504174504 | 17 | 200 | 4.8 | 11.3 | 0.00 | 0.00 | 0.00 | 63 | 1011.8 |
| 20260504174002 | 17 | 219 | 1.6 | 11.3 | 0.00 | 0.00 | 0.00 | 64 | 1011.8 |
| 20260504173504 | 18 | 208 | 3.2 | 11.3 | 0.00 | 0.00 | 0.00 | 61 | 1011.8 |
| 20260504173002 | 18 | 175 | 1.6 | 9.7 | 0.00 | 0.00 | 0.00 | 63 | 1011.7 |
| 20260504172504 | 17 | 203 | 1.6 | 12.9 | 0.00 | 0.00 | 0.00 | 65 | 1011.6 |
| 20260504172006 | 17 | 169 | 4.8 | 12.9 | 0.00 | 0.00 | 0.00 | 66 | 1011.6 |
| 20260504171528 | 17 | 150 | 3.2 | 12.9 | 0.00 | 0.00 | 0.00 | 64 | 1011.7 |
| 20260504171007 | 17 | 182 | 4.8 | 14.5 | 0.00 | 0.00 | 0.00 | 64 | 1011.6 |
| 20260504170506 | 16 | 144 | 4.8 | 14.5 | 0.00 | 0.00 | 0.00 | 64 | 1011.6 |
| 20260504151004 | 15 | 163 | 1.6 | 8.0 | 0.00 | 0.00 | 0.00 | 70 | 1010.9 |
| 20260504150504 | 15 | 178 | 3.2 | 6.4 | 0.00 | 0.00 | 0.00 | 71 | 1010.9 |
| 20260504141011 | 12 | 27 | 0.0 | 0.0 | 0.00 | 0.00 | 0.00 | 80 | 1010.5 |
| 20260504140508 | 12 | 27 | 0.0 | 0.0 | 0.00 | 0.00 | 0.00 | 81 | 1010.6 |
| 20260504130511 | 11 | 62 | 0.0 | 0.0 | 0.00 | 0.00 | 0.00 | 82 | 1009.9 |
| 20260504110509 | 11 | 84 | 0.0 | 0.0 | 0.00 | 0.00 | 0.00 | 78 | 1009.7 |
| 20260504100504 | 12 | 84 | 0.0 | 0.0 | 0.00 | 0.00 | 0.00 | 73 | 1009.7 |
| 20260504082004 | 14 | 84 | 0.0 | 0.0 | 0.00 | 0.00 | 0.00 | 66 | 1009.6 |
| 20260504081523 | 14 | 84 | 0.0 | 0.0 | 0.00 | 0.00 | 0.00 | 66 | 1009.6 |
| 20260504081004 | 14 | 84 | 0.0 | 0.0 | 0.00 | 0.00 | 0.00 | 65 | 1009.6 |
| 20260504080503 | 14 | 84 | 0.0 | 0.0 | 0.00 | 0.00 | 0.00 | 66 | 1009.7 |
| 20260504050507 | 20 | 43 | 0.0 | 0.0 | 0.00 | 0.00 | 0.00 | 47 | 1009.6 |
| 20260504045504 | 20 | 43 | 0.0 | 0.0 | 0.00 | 0.00 | 0.00 | 45 | 1009.7 |
| 20260504045006 | 20 | 43 | 0.0 | 0.0 | 0.00 | 0.00 | 0.00 | 45 | 1009.7 |
| 20260504044523 | 20 | 43 | 0.0 | 0.0 | 0.00 | 0.00 | 0.00 | 45 | 1009.7 |
| 20260504044009 | 20 | 43 | 0.0 | 0.0 | 0.00 | 0.00 | 0.00 | 44 | 1009.8 |
| 20260504043507 | 20 | 43 | 0.0 | 0.0 | 0.00 | 0.00 | 0.00 | 43 | 1009.6 |
| 20260504043018 | 20 | 74 | 0.0 | 1.6 | 0.00 | 0.00 | 0.00 | 43 | 1009.6 |
| 20260504042507 | 20 | 77 | 0.0 | 4.8 | 0.00 | 0.00 | 0.00 | 44 | 1009.6 |
| 20260504042007 | 20 | 14 | 1.6 | 4.8 | 0.00 | 0.00 | 0.00 | 44 | 1009.5 |
| 20260504041528 | 20 | 90 | 0.0 | 3.2 | 0.00 | 0.00 | 0.00 | 45 | 1009.5 |
| 20260504041008 | 21 | 53 | 0.0 | 3.2 | 0.00 | 0.00 | 0.00 | 44 | 1009.5 |
| 20260504040507 | 21 | 34 | 0.0 | 3.2 | 0.00 | 0.00 | 0.00 | 44 | 1009.5 |
| 20260504040025 | 21 | 61 | 1.6 | 4.8 | 0.00 | 0.00 | 0.00 | 44 | 1009.5 |
| 20260504035508 | 21 | 45 | 1.6 | 4.8 | 0.00 | 0.00 | 0.00 | 44 | 1009.4 |
| 20260504035008 | 21 | 5 | 1.6 | 4.8 | 0.00 | 0.00 | 0.00 | 46 | 1009.4 |
| 20260504034529 | 21 | 13 | 0.0 | 3.2 | 0.00 | 0.00 | 0.00 | 46 | 1009.3 |
| 20260504034004 | 21 | 16 | 0.0 | 3.2 | 0.00 | 0.00 | 0.00 | 46 | 1009.3 |
| 20260504033508 | 21 | 332 | 0.0 | 3.2 | 0.00 | 0.00 | 0.00 | 46 | 1009.2 |
| 20260504033017 | 21 | 332 | 0.0 | 4.8 | 0.00 | 0.00 | 0.00 | 44 | 1009.3 |
| 20260504032507 | 21 | 327 | 0.0 | 8.0 | 0.00 | 0.00 | 0.00 | 43 | 1009.3 |
| 20260504032012 | 22 | 5 | 3.2 | 12.9 | 0.00 | 0.00 | 0.00 | 42 | 1009.3 |
| 20260504031522 | 22 | 346 | 1.6 | 12.9 | 0.00 | 0.00 | 0.00 | 43 | 1009.3 |
| 20260504031007 | 22 | 15 | 3.2 | 11.3 | 0.00 | 0.00 | 0.00 | 42 | 1009.3 |
| 20260504030510 | 22 | 352 | 4.8 | 6.4 | 0.00 | 0.00 | 0.00 | 42 | 1009.2 |
| 20260504030037 | 22 | 34 | 1.6 | 9.7 | 0.00 | 0.00 | 0.00 | 42 | 1009.0 |
| 20260504025509 | 22 | 9 | 3.2 | 9.7 | 0.00 | 0.00 | 0.00 | 42 | 1009.0 |
| 20260504025010 | 22 | 346 | 3.2 | 11.3 | 0.00 | 0.00 | 0.00 | 41 | 1009.1 |
| 20260504024525 | 23 | 34 | 4.8 | 11.3 | 0.00 | 0.00 | 0.00 | 40 | 1009.0 |
| 20260504024006 | 23 | 342 | 3.2 | 8.0 | 0.00 | 0.00 | 0.00 | 40 | 1009.0 |
| 20260504023506 | 23 | 9 | 3.2 | 16.1 | 0.00 | 0.00 | 0.00 | 39 | 1009.0 |
| 20260504023031 | 23 | 350 | 4.8 | 17.7 | 0.00 | 0.00 | 0.00 | 39 | 1009.0 |
| 20260504022505 | 23 | 341 | 4.8 | 17.7 | 0.00 | 0.00 | 0.00 | 39 | 1009.0 |
| 20260504022007 | 23 | 352 | 3.2 | 16.1 | 0.00 | 0.00 | 0.00 | 40 | 1009.0 |
| 20260504021517 | 24 | 5 | 4.8 | 12.9 | 0.00 | 0.00 | 0.00 | 40 | 1009.0 |
| 20260504021008 | 24 | 347 | 1.6 | 12.9 | 0.00 | 0.00 | 0.00 | 40 | 1009.0 |
| 20260504020508 | 24 | 59 | 3.2 | 11.3 | 0.00 | 0.00 | 0.00 | 40 | 1009.0 |
| 20260504020022 | 24 | 5 | 1.6 | 14.5 | 0.00 | 0.00 | 0.00 | 40 | 1009.0 |
| 20260504015508 | 24 | 321 | 4.8 | 16.1 | 0.00 | 0.00 | 0.00 | 39 | 1009.1 |
| 20260504015011 | 25 | 319 | 6.4 | 16.1 | 0.00 | 0.00 | 0.00 | 39 | 1009.1 |
| 20260504014508 | 25 | 57 | 4.8 | 14.5 | 0.00 | 0.00 | 0.00 | 39 | 1009.2 |
| 20260504014003 | 25 | 307 | 3.2 | 12.9 | 0.00 | 0.00 | 0.00 | 39 | 1009.1 |
| 20260504013508 | 25 | 342 | 4.8 | 12.9 | 0.00 | 0.00 | 0.00 | 39 | 1009.1 |
| 20260504013010 | 25 | 332 | 4.8 | 12.9 | 0.00 | 0.00 | 0.00 | 38 | 1009.2 |
| 20260504012508 | 25 | 336 | 4.8 | 17.7 | 0.00 | 0.00 | 0.00 | 38 | 1009.2 |
| 20260504012001 | 25 | 352 | 4.8 | 17.7 | 0.00 | 0.00 | 0.00 | 39 | 1009.3 |
| 20260504011503 | 25 | 9 | 1.6 | 9.7 | 0.00 | 0.00 | 0.00 | 38 | 1009.4 |
| 20260504011000 | 25 | 306 | 3.2 | 9.7 | 0.00 | 0.00 | 0.00 | 39 | 1009.4 |
| 20260504010503 | 25 | 318 | 1.6 | 6.4 | 0.00 | 0.00 | 0.00 | 38 | 1009.4 |